Wind_Speed
17 17 18 19 20 18 19 21 21 21 19 19 19 18 17 17 16 16 15 13 12 11 11 11 12 12 12 12 12 12 11 11 11 10 9 9 8 8 8 8 7 7 8 8 8 8 8 9 9
16 16 17 18 18 18 21 22 22 20 19 19 19 18 17 16 16 15 14 12 12 11 11 11 11 11 12 12 11 11 11 10 10 9 9 8 8 8 8 7 7 7 8 7 7 8 8 9 9
15 15 16 17 17 19 21 22 22 21 20 19 19 18 16 15 15 14 14 12 11 11 11 11 11 11 11 11 10 10 10 9 9 9 8 8 8 8 7 7 7 7 7 7 7 7 8 8 8
13 13 14 15 17 19 20 22 22 21 20 20 19 19 17 15 15 14 14 13 11 11 11 12 12 11 10 10 10 10 9 8 9 9 8 8 7 7 7 7 7 8 7 6 6 6 7 7 7
12 12 13 14 17 18 19 20 21 21 20 19 19 19 16 15 14 14 14 13 12 12 13 12 12 12 11 10 10 10 9 8 8 8 7 7 7 8 8 7 7 6 6 6 6 6 6 6 7
10 11 12 14 16 17 18 20 21 20 19 18 18 18 16 15 14 14 13 13 12 12 13 13 12 12 11 11 10 10 9 9 8 8 7 7 7 6 6 6 6 5 6 6 6 6 6 7 7
8 10 12 14 15 16 18 19 20 20 18 17 17 17 16 15 15 14 13 12 12 13 13 13 13 12 12 11 11 10 9 9 8 8 7 7 6 6 6 7 6 6 6 6 6 6 7 6 7
7 9 11 13 14 15 16 18 19 18 18 17 17 17 16 15 15 14 14 13 13 13 13 13 12 12 11 11 11 10 10 9 8 8 7 8 8 7 7 7 7 7 7 6 7 7 7 7 6
5 7 10 12 13 14 15 17 17 17 17 16 16 16 15 15 14 14 14 13 13 13 12 12 12 12 11 11 11 11 10 10 9 8 8 8 9 8 8 7 7 7 7 7 7 7 7 6 6
4 5 8 10 12 12 14 15 16 16 16 16 15 15 14 14 14 14 13 13 13 13 12 12 12 12 11 11 11 10 10 10 9 8 8 8 8 8 8 7 7 7 7 7 7 7 7 6 6
2 4 5 7 10 11 12 14 15 15 16 15 15 14 14 13 13 13 13 13 13 12 12 11 11 11 10 10 10 10 10 10 9 9 8 7 7 7 7 7 6 6 6 6 6 5 5 5 5
1 1 3 6 8 10 11 12 13 15 15 14 14 14 13 12 13 12 12 13 13 12 11 11 10 10 10 9 9 9 9 8 8 8 7 7 6 6 6 5 5 5 5 5 5 4 4 4 4
3 1 1 4 6 8 9 10 12 13 13 13 12 13 13 13 13 12 12 12 12 12 11 10 10 9 9 9 9 9 8 8 8 7 6 5 5 4 4 4 4 4 4 4 4 3 3 3 3
5 3 2 1 4 6 8 9 9 11 12 12 12 12 12 12 12 12 12 11 11 11 11 10 9 9 9 9 9 9 8 7 7 7 6 4 4 3 3 2 2 2 3 3 3 2 2 2 3
7 6 4 2 1 5 7 8 8 9 10 10 11 11 11 11 11 11 11 11 10 10 10 9 9 8 8 8 8 8 7 7 6 6 5 4 3 3 2 1 1 1 2 2 2 1 1 1 1
10 9 7 4 2 2 5 7 7 7 8 8 9 10 10 11 10 10 10 9 9 9 9 8 8 8 7 7 7 7 6 6 6 5 5 4 3 2 2 1 1 1 1 1 1 1 1 0 1
13 11 9 8 5 2 1 4 5 5 6 7 8 9 9 10 10 10 10 9 9 8 8 8 8 7 7 7 7 6 6 5 5 5 4 3 2 2 2 1 1 0 1 1 1 1 1 1 2
15 14 12 10 8 5 3 1 3 4 5 5 6 8 8 8 9 9 8 9 8 7 6 7 7 7 6 6 6 6 6 6 5 4 4 3 3 2 2 1 1 1 2 3 3 3 2 2 3
18 17 15 13 11 9 7 4 4 4 4 4 4 5 6 7 8 8 8 8 7 6 6 6 7 6 6 6 6 6 6 6 5 4 3 3 3 3 2 1 1 2 3 3 4 4 4 4 4
20 19 17 16 14 12 10 8 6 5 4 4 4 4 6 8 8 7 7 7 8 7 5 6 6 6 6 6 6 7 6 6 5 4 4 4 4 4 4 3 3 3 3 4 4 5 5 5 5
21 20 20 19 17 16 13 10 8 6 5 4 4 4 6 6 6 6 6 7 7 6 6 6 5 5 6 6 6 7 6 6 6 5 4 4 5 5 5 5 4 4 3 4 5 5 6 6 7
23 22 23 22 20 19 17 13 10 8 6 5 5 5 5 5 5 6 6 6 6 6 6 6 5 5 6 6 6 7 7 7 6 5 5 5 6 6 6 6 5 5 5 6 6 6 7 7 7
26 26 25 24 23 21 18 16 12 10 8 6 6 6 6 5 5 6 6 6 6 6 6 6 6 6 6 7 7 7 8 7 7 6 7 7 7 6 6 7 6 6 6 7 7 7 7 8 9
29 28 27 26 25 23 20 17 13 11 10 9 8 8 7 7 6 7 7 7 8 7 7 7 7 7 7 8 8 8 8 8 7 7 7 8 8 8 7 8 8 7 7 8 8 8 8 9 10
31 30 29 28 28 24 21 19 14 13 12 11 10 9 8 8 8 8 8 8 7 7 7 7 8 8 8 9 9 9 10 9 8 8 8 9 9 9 8 8 9 9 9 9 10 9 9 10 10
32 31 30 30 28 25 23 21 17 15 14 13 11 11 10 9 9 9 8 7 7 7 8 8 9 9 10 10 9 10 10 10 9 9 9 9 10 9 8 9 9 10 10 10 10 10 11 11 11
33 33 31 31 29 28 25 23 20 18 15 13 12 11 11 10 9 9 9 9 9 9 10 10 11 11 12 11 10 11 11 11 11 11 10 10 10 9 9 9 9 10 11 12 11 11 11 12 13
35 33 33 32 31 29 27 24 21 19 16 14 12 11 11 10 9 10 10 10 10 10 11 12 12 12 13 12 12 12 12 12 12 12 11 11 11 10 9 9 9 10 11 11 12 13 13 14 14
35 35 34 33 32 30 27 24 21 19 17 14 13 12 12 12 11 10 10 10 11 12 12 12 13 13 13 13 13 13 13 13 12 12 12 11 11 11 10 10 11 11 11 12 12 13 14 15 15
35 34 33 33 31 29 28 24 22 20 19 16 15 15 14 13 11 11 10 10 12 13 13 13 14 14 14 13 12 13 14 14 13 13 12 12 12 11 11 11 12 12 12 12 12 12 13 14 14
Wind_Direction
66 66 66 66 64 64 65 65 64 64 63 65 65 64 65 66 67 70 72 69 64 64 65 68 70 71 73 74 75 75 76 78 82 82 83 82 82 83 82 81 81 82 83 85 88 90 87 87 91
66 67 67 66 68 66 66 65 61 60 60 61 63 62 62 62 65 68 69 68 66 67 67 66 67 70 72 74 74 74 75 76 78 79 78 78 83 85 84 83 83 85 85 87 89 90 89 88 89
66 67 68 68 70 69 67 67 63 57 57 56 58 59 58 60 63 66 68 68 69 71 68 66 67 69 71 71 73 74 76 75 74 75 75 77 85 88 86 84 87 92 92 96 91 90 94 92 89
64 67 66 68 69 69 67 67 63 58 55 55 57 57 57 58 60 63 65 68 69 69 68 69 69 68 70 72 73 74 75 75 75 75 74 75 82 92 89 88 91 97 96 92 91 91 97 97 90
65 64 68 69 69 68 68 67 64 59 56 54 56 57 56 57 59 62 63 64 65 66 67 67 68 67 68 72 73 75 75 73 74 76 73 73 85 91 83 85 92 91 91 96 96 97 99 96 91
66 65 68 67 67 67 65 63 61 57 55 54 55 55 54 54 57 61 61 63 63 63 62 65 65 65 66 69 73 73 72 70 71 74 77 78 83 87 81 85 91 90 97 102 100 105 105 97 92
62 63 68 67 66 64 63 60 58 56 54 53 53 54 53 53 54 58 59 60 60 59 59 61 64 65 66 69 69 69 70 71 72 73 80 80 81 80 83 85 90 96 101 104 100 97 97 94 92
66 65 70 68 66 62 61 60 58 57 54 51 50 51 52 52 51 55 58 60 60 59 59 60 63 66 67 68 67 65 67 67 69 75 85 81 84 81 80 81 86 91 91 93 96 95 97 95 93
61 67 69 69 66 62 60 61 60 57 53 51 50 48 49 50 50 51 55 58 58 58 60 62 64 67 67 67 66 66 66 64 67 75 76 73 78 81 77 81 84 84 85 88 93 93 99 94 92
54 63 66 67 67 64 62 62 60 57 53 51 49 47 47 47 48 50 53 56 56 57 60 63 65 66 66 65 65 65 65 63 64 69 72 73 77 76 75 80 83 84 85 90 90 90 97 94 92
57 69 64 66 67 66 65 62 57 55 51 49 48 47 45 45 46 47 50 53 54 55 59 62 63 63 63 64 63 63 64 62 61 62 66 72 76 78 78 77 87 89 87 88 92 91 93 95 94
294 60 74 66 65 67 63 58 55 53 48 45 46 45 45 45 44 45 47 49 53 56 59 61 62 60 60 60 60 61 63 61 57 58 62 68 72 73 74 72 80 84 87 90 94 88 89 93 92
240 226 84 65 65 67 62 57 54 50 45 41 41 40 40 43 45 45 46 48 51 55 57 60 62 59 59 58 58 58 57 54 53 56 62 69 72 76 73 69 80 82 82 85 89 90 81 87 80
233 230 238 61 63 61 59 56 50 47 44 39 39 36 34 36 39 42 44 46 49 52 55 57 58 58 58 58 56 56 53 51 50 52 60 69 70 66 68 73 91 92 84 79 83 89 85 84 77
232 233 243 242 46 58 59 53 45 41 40 39 38 35 32 30 28 32 36 39 43 46 50 51 51 52 53 53 53 51 47 45 46 49 51 54 60 62 58 59 92 119 108 90 71 65 97 98 83
232 233 234 238 233 62 58 46 39 34 34 32 31 31 29 27 24 25 28 33 37 39 41 41 42 42 43 43 42 39 36 37 39 43 43 42 52 55 53 46 83 121 154 108 51 43 42 354 342
232 234 236 236 236 237 57 41 32 23 19 18 21 25 24 23 22 21 23 25 29 31 33 34 33 33 31 26 22 22 23 26 28 27 24 21 28 33 27 11 65 178 228 260 281 290 316 328 320
233 235 238 238 242 242 245 316 4 354 351 4 10 14 16 17 15 15 18 19 22 25 29 27 26 25 21 15 13 13 12 10 7 7 5 0 5 4 356 333 276 270 271 273 276 271 267 274 280
230 231 235 237 242 246 248 261 297 320 325 341 351 8 13 9 0 2 8 10 10 11 15 21 24 23 17 10 9 11 8 1 354 356 351 348 341 340 334 331 279 264 267 266 265 268 269 272 273
229 229 232 236 241 243 250 260 275 289 296 309 330 352 359 355 354 354 1 6 1 360 4 16 23 24 13 9 6 8 6 1 351 341 332 330 325 325 327 312 311 290 271 262 268 272 272 275 272
228 229 232 234 240 245 250 256 263 274 275 287 310 333 345 347 356 356 355 358 357 7 8 8 13 11 5 3 4 2 0 1 352 340 332 323 316 313 312 308 299 290 276 271 283 281 275 274 271
227 228 230 233 237 242 250 254 257 264 269 274 293 308 321 323 332 335 338 340 344 349 350 354 356 356 355 354 351 353 355 354 352 340 324 314 313 309 302 302 304 295 284 279 283 279 276 275 276
226 228 230 233 237 241 249 255 255 257 262 274 282 285 294 303 307 314 317 323 324 326 329 335 338 347 349 347 341 338 341 340 338 332 320 316 307 299 293 289 295 298 291 283 280 278 275 275 277
223 227 230 234 238 241 247 253 252 252 256 265 276 277 277 280 292 301 304 306 311 315 318 320 325 330 334 336 338 332 331 329 323 317 314 313 310 304 295 287 282 281 285 284 281 281 277 276 280
224 226 229 233 237 241 246 252 254 253 255 260 266 268 269 271 281 291 297 299 305 311 303 303 313 314 319 322 328 329 325 323 318 313 310 307 307 305 297 295 283 277 277 277 278 280 280 279 281
225 228 232 236 240 243 246 250 252 253 253 257 261 264 267 268 277 286 291 300 295 307 306 302 307 310 309 309 312 316 317 316 311 310 306 301 303 303 296 291 286 282 279 278 276 279 281 280 282
225 227 232 236 241 244 247 250 252 253 254 258 260 263 265 268 279 281 285 293 295 301 309 308 306 307 308 303 303 307 307 307 307 307 305 303 304 305 297 291 289 286 286 280 280 281 285 286 286
225 228 230 235 239 243 246 250 253 253 255 257 258 260 263 268 272 273 283 284 288 297 302 302 303 305 304 299 297 299 302 302 303 304 302 302 303 302 300 290 289 289 289 287 285 286 286 286 286
225 227 230 235 239 242 245 248 250 251 252 252 252 255 258 265 269 275 281 281 289 296 297 299 300 301 302 299 296 294 298 299 303 303 301 305 306 301 298 295 293 290 288 292 292 289 287 286 286
225 228 231 234 238 240 244 245 246 249 249 249 252 257 261 264 269 271 276 280 291 297 297 296 297 298 299 297 298 297 295 297 301 301 301 302 306 301 298 296 296 296 295 298 298 295 294 290 289
Height
5898 5897 5896 5896 5895 5893 5891 5889 5888 5888 5888 5887 5886 5885 5885 5885 5885 5886 5884 5883 5883 5882 5881 5881 5881 5880 5880 5880 5880 5880 5880 5880 5880 5881 5881 5882 5882 5882 5883 5883 5883 5884 5884 5884 5884 5885 5885 5885 5886
5901 5901 5901 5899 5897 5895 5894 5892 5891 5891 5891 5890 5889 5888 5887 5887 5886 5886 5885 5885 5885 5884 5884 5883 5882 5882 5882 5882 5882 5882 5882 5882 5882 5883 5883 5883 5883 5883 5884 5884 5885 5885 5885 5886 5886 5886 5887 5887 5887
5904 5903 5904 5902 5899 5898 5897 5895 5894 5894 5893 5892 5891 5891 5890 5890 5889 5888 5887 5887 5887 5887 5886 5885 5884 5884 5884 5883 5883 5883 5883 5883 5884 5884 5884 5884 5884 5885 5885 5886 5886 5886 5887 5887 5887 5887 5888 5888 5888
5907 5907 5906 5905 5902 5901 5899 5898 5897 5896 5896 5895 5894 5893 5893 5892 5891 5890 5890 5889 5889 5888 5887 5887 5886 5886 5885 5885 5885 5885 5885 5885 5885 5885 5886 5885 5885 5886 5886 5887 5887 5887 5888 5888 5889 5889 5889 5890 5890
5909 5909 5908 5906 5905 5904 5902 5900 5900 5899 5899 5898 5897 5896 5895 5895 5894 5893 5892 5892 5891 5890 5889 5889 5888 5887 5887 5887 5886 5886 5886 5886 5886 5887 5887 5887 5887 5887 5888 5888 5889 5889 5889 5890 5890 5890 5890 5891 5891
5911 5910 5910 5908 5907 5906 5904 5903 5902 5902 5902 5901 5900 5899 5898 5898 5897 5895 5894 5894 5893 5892 5891 5890 5890 5889 5889 5888 5888 5888 5888 5888 5888 5888 5889 5889 5889 5889 5890 5890 5890 5890 5890 5890 5890 5891 5892 5892 5892
5913 5912 5911 5910 5909 5908 5907 5906 5905 5905 5905 5904 5903 5902 5901 5900 5899 5898 5897 5896 5895 5894 5893 5892 5892 5891 5891 5890 5890 5890 5890 5890 5889 5890 5890 5890 5890 5891 5891 5891 5891 5891 5891 5892 5892 5893 5893 5893 5894
5913 5914 5912 5911 5911 5910 5910 5908 5908 5908 5907 5907 5906 5905 5904 5903 5902 5900 5899 5898 5897 5896 5895 5894 5893 5893 5893 5892 5892 5892 5891 5891 5891 5891 5891 5891 5891 5892 5892 5892 5892 5892 5893 5893 5893 5894 5894 5894 5895
5915 5916 5914 5914 5913 5913 5912 5911 5911 5910 5910 5909 5908 5907 5906 5905 5904 5903 5902 5900 5899 5898 5897 5896 5896 5895 5895 5894 5894 5893 5893 5893 5893 5893 5893 5892 5893 5893 5893 5893 5893 5893 5894 5894 5895 5895 5895 5896 5896
5916 5916 5916 5915 5915 5915 5914 5914 5913 5913 5912 5911 5910 5909 5908 5907 5907 5905 5904 5903 5901 5900 5899 5899 5898 5897 5897 5896 5896 5895 5895 5895 5895 5895 5894 5894 5894 5894 5894 5894 5895 5895 5895 5896 5896 5896 5896 5897 5897
5916 5917 5916 5916 5916 5916 5916 5916 5916 5915 5914 5914 5913 5912 5911 5910 5909 5908 5906 5905 5904 5903 5902 5901 5900 5899 5899 5898 5898 5897 5897 5897 5896 5896 5896 5896 5896 5896 5896 5896 5896 5896 5897 5897 5897 5897 5897 5898 5898
5917 5917 5917 5917 5917 5918 5918 5918 5917 5917 5917 5916 5915 5914 5913 5912 5911 5910 5908 5907 5906 5905 5904 5903 5902 5901 5901 5900 5900 5899 5899 5898 5898 5898 5897 5897 5897 5897 5897 5897 5897 5898 5898 5898 5898 5898 5898 5898 5899
5918 5918 5918 5918 5919 5919 5919 5919 5919 5919 5918 5918 5917 5916 5915 5914 5913 5912 5910 5909 5908 5907 5906 5905 5904 5903 5903 5902 5901 5901 5900 5900 5899 5899 5898 5898 5898 5898 5898 5898 5898 5898 5899 5899 5899 5899 5899 5899 5899
5917 5918 5918 5919 5919 5920 5920 5920 5921 5920 5920 5919 5919 5918 5917 5916 5915 5913 5912 5911 5910 5909 5908 5907 5906 5905 5904 5904 5903 5902 5902 5901 5900 5899 5899 5899 5899 5899 5899 5899 5899 5899 5899 5899 5899 5899 5899 5900 5900
5916 5918 5918 5919 5919 5920 5921 5922 5922 5922 5921 5921 5920 5919 5918 5917 5916 5915 5914 5912 5911 5910 5909 5908 5908 5906 5905 5905 5904 5903 5903 5902 5901 5900 5900 5899 5899 5899 5899 5899 5899 5899 5899 5900 5900 5899 5899 5899 5900
5915 5917 5918 5919 5919 5920 5922 5922 5923 5922 5922 5922 5921 5920 5919 5918 5917 5916 5915 5914 5912 5911 5910 5910 5909 5908 5907 5906 5905 5904 5904 5903 5902 5901 5901 5900 5900 5900 5899 5899 5899 5899 5899 5900 5900 5899 5899 5899 5899
5913 5915 5917 5918 5919 5919 5921 5922 5922 5922 5922 5922 5921 5920 5920 5919 5918 5917 5916 5915 5913 5912 5911 5910 5910 5909 5908 5907 5906 5905 5904 5903 5903 5902 5901 5901 5900 5900 5899 5899 5899 5899 5899 5899 5899 5899 5899 5899 5899
5912 5913 5915 5917 5918 5919 5920 5921 5922 5922 5922 5922 5921 5921 5920 5919 5919 5918 5917 5915 5914 5913 5912 5911 5910 5909 5909 5908 5907 5906 5905 5904 5903 5902 5901 5901 5900 5900 5899 5899 5899 5898 5899 5899 5899 5899 5899 5899 5899
5910 5912 5913 5915 5916 5917 5919 5920 5921 5922 5922 5922 5921 5921 5920 5920 5919 5918 5917 5916 5915 5914 5912 5912 5911 5910 5909 5908 5907 5906 5905 5904 5903 5902 5901 5901 5900 5900 5899 5899 5898 5898 5898 5898 5898 5898 5898 5898 5898
5907 5909 5911 5913 5914 5916 5917 5919 5920 5921 5922 5922 5922 5921 5920 5920 5919 5918 5917 5916 5915 5913 5912 5912 5911 5910 5909 5908 5907 5906 5905 5904 5903 5902 5901 5901 5900 5899 5899 5898 5898 5897 5897 5897 5897 5897 5897 5897 5897
5905 5908 5909 5911 5912 5914 5916 5918 5919 5920 5921 5922 5921 5921 5920 5920 5919 5918 5917 5916 5915 5914 5913 5912 5912 5911 5909 5909 5908 5907 5906 5904 5903 5902 5901 5900 5900 5899 5898 5897 5897 5897 5896 5896 5896 5896 5896 5896 5896
5902 5905 5907 5908 5910 5911 5914 5916 5918 5918 5920 5921 5921 5920 5920 5919 5919 5918 5917 5916 5915 5914 5913 5913 5912 5911 5909 5909 5908 5907 5906 5904 5903 5901 5900 5900 5899 5898 5897 5897 5896 5896 5895 5895 5895 5895 5895 5895 5895
5898 5900 5903 5905 5907 5909 5911 5914 5916 5916 5918 5919 5920 5920 5919 5919 5918 5917 5917 5916 5915 5914 5913 5912 5911 5910 5909 5908 5907 5906 5905 5904 5902 5901 5900 5899 5898 5897 5896 5895 5895 5895 5894 5894 5894 5893 5893 5893 5893
5893 5896 5899 5901 5903 5906 5909 5911 5913 5915 5916 5917 5918 5918 5918 5918 5917 5916 5916 5915 5914 5913 5913 5912 5910 5909 5908 5907 5906 5905 5904 5903 5901 5900 5899 5898 5897 5895 5895 5894 5893 5893 5893 5892 5892 5892 5891 5891 5891
5888 5892 5894 5896 5899 5902 5906 5907 5911 5912 5914 5915 5916 5916 5916 5916 5916 5915 5914 5913 5912 5912 5911 5910 5910 5908 5907 5906 5905 5904 5903 5901 5900 5899 5898 5896 5895 5894 5893 5892 5891 5891 5891 5891 5890 5890 5890 5889 5889
5883 5887 5891 5894 5896 5900 5902 5904 5908 5910 5911 5912 5913 5914 5915 5915 5914 5914 5913 5912 5911 5910 5910 5909 5908 5907 5906 5905 5904 5903 5901 5900 5898 5897 5896 5895 5893 5892 5891 5890 5889 5889 5889 5889 5888 5888 5887 5887 5886
5877 5881 5886 5890 5892 5895 5898 5901 5904 5906 5908 5910 5911 5912 5912 5913 5912 5912 5911 5910 5910 5909 5908 5907 5906 5905 5904 5903 5902 5900 5899 5898 5896 5895 5894 5893 5891 5889 5889 5888 5887 5887 5886 5886 5886 5885 5885 5884 5884
5873 5877 5881 5884 5887 5890 5894 5897 5901 5903 5905 5907 5908 5909 5910 5910 5910 5910 5909 5908 5908 5907 5906 5905 5904 5903 5901 5900 5899 5898 5897 5895 5894 5893 5892 5890 5889 5888 5887 5886 5885 5885 5884 5884 5883 5883 5882 5882 5881
5867 5872 5875 5879 5883 5886 5889 5896 5897 5900 5902 5904 5905 5906 5907 5907 5907 5907 5906 5905 5905 5904 5903 5902 5901 5900 5898 5897 5896 5895 5894 5892 5891 5890 5889 5888 5887 5886 5885 5884 5884 5883 5882 5881 5880 5880 5879 5878 5878
5862 5867 5871 5875 5878 5882 5886 5893 5893 5896 5899 5901 5902 5903 5904 5905 5905 5904 5903 5903 5902 5901 5900 5899 5899 5897 5896 5895 5893 5892 5891 5890 5889 5888 5887 5886 5885 5884 5883 5882 5881 5880 5879 5878 5877 5876 5876 5875 5874